Temp
-7 -7 -7 -7 -7 -7 -7 -7 -7 -7 -7 -7 -6 -6 -6 -6 -6 -6 -6 -6 -6 -6 -6 -6 -6 -6 -6 -6 -6 -6 -6 -6 -6 -7 -7 -7 -7 -7 -7 -7 -7 -7
-7 -7 -7 -7 -7 -7 -7 -7 -7 -7 -7 -7 -6 -6 -6 -6 -6 -6 -6 -6 -6 -6 -6 -6 -6 -6 -6 -6 -6 -6 -6 -6 -6 -6 -7 -7 -7 -7 -7 -7 -7 -7
-6 -7 -7 -7 -7 -7 -7 -7 -7 -7 -7 -7 -7 -7 -7 -6 -6 -6 -6 -6 -6 -6 -6 -6 -6 -6 -6 -6 -6 -6 -6 -6 -6 -6 -6 -7 -7 -7 -7 -7 -7 -7
-6 -6 -7 -7 -7 -7 -7 -7 -7 -7 -7 -7 -7 -7 -7 -7 -6 -6 -6 -6 -6 -6 -6 -6 -6 -6 -6 -6 -6 -6 -6 -6 -6 -6 -6 -6 -7 -7 -7 -7 -7 -7
-6 -6 -7 -7 -7 -7 -7 -7 -7 -7 -7 -7 -7 -7 -7 -7 -7 -6 -6 -6 -6 -6 -6 -6 -6 -6 -6 -6 -6 -6 -6 -6 -6 -6 -6 -6 -6 -6 -6 -7 -7 -7
-6 -6 -6 -7 -7 -7 -7 -7 -7 -7 -7 -7 -7 -7 -7 -7 -7 -7 -6 -6 -6 -6 -6 -6 -6 -6 -6 -6 -6 -6 -6 -6 -6 -6 -6 -6 -6 -6 -6 -6 -6 -6
-6 -6 -6 -7 -7 -7 -7 -7 -7 -7 -7 -7 -7 -7 -7 -7 -7 -7 -7 -7 -6 -6 -6 -6 -6 -6 -6 -6 -6 -6 -6 -6 -6 -6 -6 -6 -6 -6 -6 -6 -6 -6
-6 -6 -6 -7 -7 -7 -7 -7 -7 -7 -7 -6 -6 -6 -6 -6 -7 -7 -7 -7 -6 -6 -6 -6 -6 -6 -6 -6 -6 -6 -6 -6 -6 -6 -6 -6 -6 -6 -6 -6 -6 -6
-6 -6 -6 -7 -7 -7 -7 -7 -7 -7 -7 -6 -6 -6 -6 -6 -6 -6 -6 -7 -6 -6 -6 -6 -6 -6 -6 -6 -6 -6 -6 -6 -6 -6 -6 -6 -6 -6 -6 -6 -6 -6
-6 -6 -6 -6 -6 -6 -6 -6 -6 -7 -7 -6 -6 -6 -6 -6 -6 -6 -6 -6 -6 -6 -6 -6 -6 -6 -6 -6 -6 -6 -6 -6 -6 -6 -6 -6 -6 -6 -6 -6 -6 -6
-7 -6 -6 -6 -6 -6 -6 -6 -6 -7 -7 -7 -6 -6 -6 -6 -6 -6 -6 -6 -6 -6 -6 -6 -6 -6 -6 -6 -6 -6 -6 -6 -6 -6 -6 -6 -6 -6 -6 -6 -6 -6
-7 -7 -6 -6 -6 -6 -7 -7 -7 -7 -7 -7 -7 -7 -6 -6 -6 -6 -6 -6 -6 -6 -6 -6 -6 -6 -6 -6 -6 -6 -6 -6 -6 -6 -6 -6 -6 -6 -6 -6 -6 -6
-7 -7 -7 -7 -7 -7 -7 -6 -6 -6 -7 -7 -7 -7 -7 -7 -7 -7 -6 -6 -6 -6 -6 -6 -7 -7 -6 -6 -6 -6 -6 -6 -6 -6 -6 -6 -6 -6 -6 -6 -6 -6
-7 -7 -7 -7 -7 -7 -7 -7 -6 -6 -6 -7 -7 -7 -7 -7 -7 -7 -7 -6 -6 -6 -6 -7 -7 -7 -6 -6 -6 -6 -6 -6 -6 -6 -6 -6 -6 -6 -6 -6 -6 -6
-7 -7 -7 -7 -7 -7 -7 -7 -7 -7 -6 -6 -7 -7 -7 -7 -7 -7 -7 -7 -6 -6 -6 -7 -7 -7 -7 -6 -6 -6 -6 -6 -6 -6 -5 -5 -6 -6 -6 -6 -6 -6
-7 -7 -7 -7 -7 -7 -7 -7 -7 -7 -7 -7 -7 -7 -7 -7 -7 -7 -7 -7 -7 -6 -6 -7 -7 -7 -7 -7 -6 -6 -6 -6 -6 -6 -6 -5 -5 -5 -5 -5 -5 -5
-7 -7 -7 -7 -6 -6 -7 -7 -7 -7 -7 -7 -7 -7 -7 -7 -7 -7 -7 -7 -7 -7 -7 -7 -7 -7 -7 -7 -7 -7 -7 -6 -6 -6 -6 -6 -6 -5 -5 -5 -5 -5
-7 -7 -7 -7 -6 -6 -6 -6 -7 -7 -7 -7 -7 -7 -7 -7 -7 -7 -7 -7 -7 -7 -7 -7 -7 -7 -7 -7 -7 -7 -7 -7 -7 -7 -7 -6 -6 -6 -6 -5 -5 -5
-7 -7 -6 -6 -6 -6 -6 -6 -7 -7 -7 -7 -7 -7 -7 -7 -7 -7 -7 -7 -7 -7 -7 -7 -7 -7 -7 -7 -7 -7 -7 -7 -7 -7 -7 -7 -7 -6 -6 -6 -6 -6
-7 -7 -6 -6 -6 -6 -6 -6 -7 -7 -7 -7 -7 -7 -7 -7 -7 -7 -7 -7 -7 -7 -7 -7 -7 -7 -7 -7 -7 -7 -7 -7 -7 -7 -6 -6 -7 -7 -6 -6 -6 -6
-7 -7 -7 -6 -6 -6 -6 -6 -7 -7 -7 -7 -7 -7 -8 -8 -8 -7 -7 -7 -8 -8 -7 -7 -7 -7 -7 -7 -7 -7 -7 -7 -7 -7 -7 -7 -6 -6 -7 -6 -6 -6
-7 -7 -7 -6 -6 -6 -7 -7 -7 -7 -7 -7 -7 -7 -8 -8 -8 -8 -8 -8 -8 -8 -8 -7 -7 -7 -7 -7 -7 -7 -7 -7 -7 -7 -7 -7 -7 -7 -7 -7 -7 -7
-7 -7 -6 -7 -7 -7 -7 -7 -7 -7 -7 -7 -7 -7 -8 -8 -8 -8 -8 -8 -8 -8 -8 -8 -7 -7 -7 -7 -7 -7 -7 -7 -7 -7 -7 -7 -7 -7 -7 -7 -7 -7
-7 -7 -7 -7 -7 -7 -7 -7 -7 -7 -7 -7 -7 -8 -8 -8 -8 -8 -8 -8 -8 -8 -8 -8 -7 -7 -7 -7 -7 -7 -7 -7 -7 -8 -8 -7 -7 -7 -7 -7 -7 -7
-7 -7 -7 -7 -7 -8 -8 -8 -8 -8 -7 -8 -8 -8 -8 -8 -8 -8 -8 -8 -8 -8 -8 -8 -7 -7 -7 -7 -8 -8 -8 -7 -7 -8 -8 -8 -8 -8 -7 -7 -7 -7
-7 -8 -8 -7 -7 -8 -8 -8 -8 -8 -8 -8 -8 -8 -8 -8 -8 -8 -8 -8 -8 -8 -8 -8 -8 -7 -7 -8 -8 -8 -8 -8 -8 -8 -8 -8 -8 -8 -8 -8 -7 -7
Height
5956 5958 5958 5958 5959 5959 5960 5961 5962 5963 5964 5964 5964 5965 5965 5966 5967 5967 5968 5968 5969 5969 5970 5970 5971 5971 5972 5972 5972 5972 5973 5973 5974 5974 5975 5975 5976 5976 5977 5977 5978 5978
5955 5957 5957 5957 5958 5958 5959 5960 5961 5962 5963 5963 5964 5964 5965 5965 5966 5967 5967 5968 5968 5969 5969 5970 5970 5971 5971 5971 5972 5972 5972 5973 5973 5974 5974 5975 5976 5976 5976 5977 5977 5978
5954 5956 5956 5956 5957 5958 5959 5960 5961 5962 5962 5963 5963 5964 5964 5965 5965 5966 5967 5967 5968 5968 5969 5969 5970 5970 5971 5971 5971 5972 5972 5972 5973 5973 5974 5975 5975 5976 5976 5976 5977 5977
5953 5954 5955 5956 5956 5957 5958 5959 5960 5961 5961 5962 5963 5963 5963 5964 5964 5965 5966 5966 5967 5968 5968 5969 5969 5970 5970 5971 5971 5971 5972 5972 5973 5973 5974 5974 5975 5975 5976 5976 5976 5976
5952 5953 5954 5955 5956 5956 5957 5957 5958 5959 5960 5961 5962 5962 5963 5963 5963 5964 5965 5965 5966 5967 5967 5968 5968 5969 5970 5970 5971 5971 5971 5972 5972 5973 5973 5974 5974 5975 5975 5975 5976 5976
5950 5951 5952 5954 5955 5956 5956 5957 5957 5958 5959 5960 5961 5962 5962 5962 5962 5963 5963 5964 5965 5966 5966 5967 5967 5968 5969 5969 5970 5971 5971 5971 5972 5972 5973 5973 5974 5974 5975 5975 5975 5976
5948 5949 5951 5953 5954 5955 5955 5956 5956 5957 5958 5958 5959 5960 5961 5961 5961 5962 5962 5963 5963 5964 5965 5966 5966 5967 5967 5968 5969 5970 5970 5971 5971 5972 5972 5973 5973 5973 5974 5974 5975 5975
5946 5947 5949 5951 5952 5953 5954 5955 5955 5956 5957 5957 5958 5958 5959 5960 5960 5960 5961 5961 5962 5963 5963 5964 5965 5965 5966 5967 5967 5968 5969 5969 5970 5971 5971 5972 5972 5972 5973 5973 5974 5974
5943 5944 5946 5948 5950 5951 5952 5953 5954 5955 5956 5956 5957 5958 5958 5959 5959 5960 5960 5960 5960 5961 5962 5963 5963 5964 5965 5966 5966 5967 5967 5968 5968 5969 5970 5970 5971 5971 5972 5972 5973 5973
5942 5942 5943 5944 5946 5947 5949 5950 5951 5953 5954 5954 5955 5956 5957 5958 5958 5959 5959 5959 5959 5959 5960 5961 5962 5963 5963 5964 5965 5965 5966 5966 5967 5967 5968 5969 5969 5970 5971 5971 5972 5972
5942 5942 5942 5942 5943 5944 5946 5947 5948 5950 5951 5952 5953 5954 5956 5956 5957 5958 5958 5958 5958 5958 5959 5960 5960 5961 5962 5963 5963 5964 5964 5964 5965 5965 5966 5967 5968 5969 5969 5970 5971 5971
5939 5940 5940 5940 5941 5942 5943 5944 5946 5947 5948 5950 5951 5953 5954 5955 5955 5956 5956 5957 5957 5958 5958 5959 5959 5960 5960 5961 5962 5962 5962 5963 5963 5964 5965 5965 5966 5967 5967 5968 5969 5969
5936 5937 5938 5939 5940 5940 5941 5942 5943 5945 5946 5947 5948 5950 5952 5953 5954 5954 5955 5955 5956 5956 5957 5957 5958 5958 5959 5959 5960 5960 5961 5961 5962 5962 5963 5964 5964 5965 5965 5966 5966 5967
5934 5935 5935 5936 5937 5938 5939 5940 5942 5943 5944 5945 5946 5947 5949 5950 5952 5953 5953 5954 5954 5955 5955 5956 5957 5957 5958 5958 5958 5959 5959 5960 5960 5961 5961 5962 5962 5963 5963 5964 5964 5965
5932 5932 5932 5932 5933 5934 5936 5938 5939 5940 5942 5943 5944 5945 5946 5948 5950 5951 5952 5952 5952 5953 5954 5955 5955 5956 5956 5957 5957 5958 5958 5959 5960 5960 5960 5960 5961 5961 5961 5962 5962 5963
5929 5929 5929 5929 5930 5930 5932 5935 5936 5937 5939 5940 5941 5943 5944 5945 5947 5948 5950 5951 5951 5952 5952 5953 5953 5954 5955 5956 5956 5957 5957 5958 5959 5959 5959 5959 5959 5959 5959 5960 5960 5961
5926 5926 5926 5927 5927 5927 5929 5932 5933 5934 5936 5937 5939 5940 5941 5943 5944 5945 5947 5949 5950 5950 5950 5951 5951 5951 5952 5953 5954 5955 5956 5956 5957 5958 5958 5958 5958 5958 5958 5958 5959 5959
5923 5924 5924 5924 5924 5924 5925 5927 5929 5931 5932 5934 5935 5937 5938 5940 5942 5943 5945 5946 5948 5948 5948 5948 5948 5949 5950 5951 5952 5953 5954 5954 5955 5955 5956 5956 5957 5957 5957 5957 5958 5958
5920 5921 5921 5922 5922 5921 5921 5923 5924 5926 5928 5930 5932 5933 5935 5938 5939 5940 5941 5943 5945 5945 5945 5945 5946 5947 5948 5950 5951 5952 5952 5953 5953 5953 5953 5954 5954 5955 5955 5956 5956 5956
5917 5919 5919 5919 5919 5919 5918 5919 5920 5922 5924 5926 5928 5930 5932 5935 5936 5937 5938 5939 5941 5942 5942 5943 5944 5945 5946 5947 5948 5949 5950 5951 5951 5951 5951 5951 5951 5952 5952 5953 5954 5954
5916 5917 5917 5917 5917 5917 5916 5916 5916 5918 5920 5922 5925 5927 5929 5931 5933 5934 5934 5935 5937 5938 5939 5940 5941 5942 5942 5944 5945 5946 5947 5948 5949 5949 5949 5949 5949 5949 5950 5950 5951 5951
5914 5915 5915 5916 5916 5915 5914 5914 5914 5915 5917 5919 5921 5924 5926 5928 5930 5931 5931 5932 5933 5934 5935 5936 5937 5937 5939 5940 5942 5943 5944 5945 5945 5946 5946 5946 5947 5947 5947 5947 5947 5948
5911 5912 5913 5913 5913 5913 5912 5912 5912 5913 5915 5917 5918 5921 5923 5925 5927 5927 5928 5928 5929 5930 5931 5932 5933 5934 5936 5938 5939 5940 5941 5941 5942 5942 5943 5943 5944 5944 5944 5944 5944 5944
5909 5910 5910 5910 5910 5910 5910 5910 5911 5912 5913 5915 5916 5918 5920 5922 5924 5924 5924 5925 5926 5926 5927 5928 5929 5931 5933 5934 5935 5936 5936 5937 5938 5939 5940 5940 5941 5941 5941 5941 5941 5941
5904 5906 5907 5907 5908 5908 5907 5908 5909 5911 5912 5914 5915 5916 5918 5919 5920 5921 5921 5922 5923 5923 5924 5924 5926 5927 5929 5930 5931 5932 5933 5933 5934 5935 5936 5937 5937 5937 5937 5938 5938 5938
5900 5901 5903 5904 5905 5905 5905 5906 5908 5909 5910 5912 5913 5914 5915 5917 5918 5918 5919 5919 5920 5920 5920 5921 5922 5924 5925 5925 5927 5928 5929 5930 5930 5931 5932 5932 5933 5933 5934 5934 5934 5934
Wind_Speed
11 9 8 8 8 8 9 9 9 8 8 8 8 9 10 9 9 8 8 8 8 8 7 7 7 7 7 7 7 7 8 8 8 8 9 9 9 9 9 10 10 9
13 11 10 9 9 9 10 10 10 10 9 9 8 9 10 10 9 9 9 9 9 8 8 8 7 7 7 7 7 7 8 8 8 8 9 10 10 10 10 10 10 10
15 14 13 11 10 10 10 10 11 11 11 10 9 9 10 10 10 10 9 9 9 9 8 8 8 7 7 7 7 7 8 8 8 9 9 9 9 10 10 10 10 10
17 16 15 13 12 11 11 11 12 12 12 11 10 10 11 10 10 10 10 10 10 9 9 8 8 8 7 7 7 7 7 8 8 9 9 9 9 10 10 10 10 10
17 17 17 16 14 13 12 13 13 13 13 12 12 12 12 11 11 11 11 11 10 10 9 9 8 8 8 8 8 8 7 8 8 8 9 9 10 10 10 10 9 10
18 18 17 17 17 16 15 14 14 14 14 14 14 14 13 13 12 12 11 11 11 11 10 9 9 9 8 8 8 8 8 8 8 8 8 8 9 9 10 10 10 9
19 19 18 17 18 18 18 16 15 15 15 16 16 16 16 15 14 13 12 12 12 12 11 11 10 9 9 9 9 8 8 8 8 8 8 8 9 9 9 10 10 10
19 19 18 18 18 19 20 19 18 17 16 17 18 18 18 18 16 15 14 13 13 13 12 12 11 11 10 10 9 9 9 9 9 9 9 8 8 9 9 10 10 11
19 18 18 18 19 20 21 21 20 18 17 18 18 19 19 19 18 17 16 15 15 14 14 13 13 12 11 10 10 10 9 9 9 9 9 8 8 8 9 9 9 10
18 18 18 18 19 21 22 22 22 21 19 19 18 19 19 19 19 18 17 17 16 15 15 14 14 13 12 11 11 11 10 10 10 10 9 9 9 9 8 8 8 9
19 19 19 19 19 20 21 22 22 22 22 21 19 19 19 20 20 19 19 18 17 16 16 15 15 15 14 13 13 12 12 12 11 11 10 10 10 9 9 8 8 9
22 22 22 21 21 20 21 22 23 24 24 23 22 20 19 19 20 20 20 20 19 17 16 16 15 16 16 16 15 15 14 13 13 12 11 10 10 10 10 9 9 10
26 24 23 24 23 22 22 22 23 24 25 25 24 22 21 20 21 21 22 21 20 19 18 17 17 17 17 17 17 17 16 16 15 13 12 11 11 11 11 11 11 11
28 27 26 26 25 25 25 24 23 23 24 25 26 25 24 22 21 21 22 23 22 21 20 19 18 18 19 19 19 19 18 18 17 15 14 13 12 12 12 13 13 13
27 28 29 29 28 29 29 27 25 24 24 25 26 27 26 24 22 21 22 23 23 22 21 20 20 20 20 20 20 20 19 19 18 17 17 16 15 14 15 15 15 14
27 28 30 29 31 33 33 31 29 27 26 25 26 28 28 26 23 22 22 23 23 22 22 21 21 22 21 21 21 20 20 19 19 18 18 18 18 17 17 17 17 16
26 27 28 28 28 32 34 35 32 29 28 27 26 27 28 28 26 23 22 23 22 22 22 22 22 22 22 22 22 21 21 20 20 19 19 20 20 20 19 19 18 17
24 25 25 24 24 25 30 36 35 31 30 29 27 26 27 28 27 25 23 23 23 22 22 22 22 22 22 22 22 21 21 21 21 21 20 21 21 21 21 20 18 18
21 21 21 20 20 20 23 31 35 34 32 30 28 27 27 28 28 27 25 25 25 24 23 22 21 21 21 21 21 21 21 21 22 22 21 22 22 22 22 21 20 19
20 20 20 19 18 18 19 24 30 33 33 31 29 28 28 28 28 27 26 26 27 26 25 23 21 21 21 21 21 21 21 21 22 23 23 23 23 23 23 23 23 22
20 20 20 19 18 18 18 19 24 29 31 30 29 29 29 29 28 26 25 26 27 28 26 24 23 23 23 22 22 21 21 21 22 23 23 24 24 24 24 24 24 24
21 21 20 19 19 20 20 19 21 25 28 28 28 29 29 28 27 26 25 25 26 27 27 26 26 26 26 25 24 22 22 21 22 22 23 24 24 24 24 24 25 25
23 23 21 18 17 18 19 17 17 20 23 24 25 26 26 27 26 26 25 25 25 26 27 27 27 27 27 26 25 25 25 24 24 24 24 24 23 23 24 24 24 24
24 24 23 19 15 14 14 13 12 14 17 19 21 22 23 23 25 25 25 25 26 27 27 27 27 27 27 26 26 27 27 27 27 26 25 25 25 25 24 24 25 25
28 26 25 24 21 18 16 15 14 15 16 18 19 19 20 20 21 22 22 23 25 26 27 27 28 28 28 28 28 29 29 29 29 28 27 27 27 27 27 26 27 27
30 28 27 28 27 24 20 18 18 18 19 20 20 19 19 17 17 18 20 21 21 21 23 24 25 27 28 29 29 29 28 29 30 30 29 29 30 30 30 29 29 29
Wind_Direction
212 206 203 206 207 209 211 210 209 210 207 205 204 204 207 211 214 217 219 218 215 214 216 216 215 218 217 212 206 201 199 195 189 189 192 193 193 191 189 191 192 197
216 211 208 209 209 210 214 215 214 213 212 209 208 208 210 212 213 217 222 224 221 220 222 223 223 225 227 223 218 214 211 207 200 197 199 201 201 200 200 200 199 202
218 216 214 213 211 212 215 219 221 218 217 213 208 210 213 214 215 217 222 225 226 227 228 229 228 229 235 236 231 225 220 216 213 209 207 207 208 207 209 210 208 209
220 220 221 220 217 215 214 217 221 222 223 218 212 213 214 216 218 219 220 223 227 230 232 235 234 234 239 245 246 240 231 224 222 220 218 215 215 215 216 218 217 218
221 222 224 224 222 222 221 218 219 221 223 222 221 219 216 216 218 219 220 223 225 227 231 236 239 240 244 250 254 253 244 235 230 229 228 226 225 224 225 228 228 230
222 222 223 225 225 225 225 224 223 222 221 221 223 224 222 220 219 218 218 220 224 225 227 231 236 241 246 250 256 259 255 248 243 240 239 237 235 233 232 235 238 241
224 224 224 225 227 228 227 227 226 226 224 221 220 221 222 222 220 218 217 217 220 223 224 225 229 234 241 247 253 258 259 256 254 251 249 246 244 243 241 242 244 247
223 225 227 228 230 232 232 229 228 228 228 227 224 222 222 222 220 218 217 216 218 220 223 224 225 228 233 241 248 254 257 259 258 257 255 252 251 250 249 248 249 251
221 220 222 225 230 234 235 234 232 231 231 232 232 229 226 225 223 221 220 218 217 218 222 225 227 227 230 235 243 248 252 256 258 258 257 255 255 254 252 251 252 253
233 228 222 221 226 232 235 235 234 233 233 234 236 235 234 232 229 226 225 224 220 218 220 225 229 231 231 233 238 243 247 250 253 254 254 254 255 257 256 256 256 256
241 241 235 227 225 229 234 236 235 233 233 235 237 238 237 235 233 231 230 229 227 224 223 225 230 233 234 234 236 240 243 246 249 251 252 253 254 255 257 258 260 261
237 242 242 237 231 230 234 237 236 234 232 233 236 239 239 236 234 232 232 232 231 230 228 228 231 235 237 237 238 239 241 244 247 249 250 252 253 254 253 253 255 259
236 240 244 244 240 235 235 237 238 236 233 231 232 235 238 237 235 233 232 232 232 231 231 230 232 236 239 240 240 242 243 245 247 248 249 251 252 253 252 250 248 251
241 243 244 244 244 243 239 238 240 240 237 233 231 231 234 236 236 235 234 233 232 232 232 232 233 236 239 241 243 244 246 247 248 249 249 250 251 252 252 251 248 248
247 248 245 241 242 244 242 237 236 238 238 235 232 231 232 234 236 236 236 236 234 233 233 233 235 237 240 243 245 248 251 252 253 254 254 253 252 251 252 252 252 251
252 254 252 248 245 244 242 237 234 234 235 235 234 233 233 232 234 235 236 238 237 235 235 235 237 239 241 244 247 251 254 258 260 261 262 261 259 257 256 256 257 257
254 256 259 260 255 250 243 237 234 234 234 235 234 234 235 233 233 234 235 238 239 236 235 236 238 240 242 244 247 249 253 258 262 264 266 267 266 265 265 264 265 265
252 254 258 261 262 257 246 238 236 235 234 234 233 233 235 234 233 233 235 237 239 238 235 235 237 240 243 246 249 251 253 256 259 262 264 267 269 270 271 271 271 272
251 253 258 259 261 261 251 242 238 235 232 232 232 231 233 234 234 233 233 236 238 239 237 236 237 241 245 248 251 254 255 256 257 259 261 263 266 268 271 271 271 270
250 253 257 259 260 262 256 246 238 233 230 230 230 231 234 236 236 234 232 233 237 240 239 239 240 243 246 248 250 253 255 257 259 260 261 261 262 264 267 269 270 269
247 248 249 252 257 260 257 246 234 228 228 230 230 231 234 236 236 236 234 234 237 240 241 240 241 244 246 248 249 252 254 257 260 262 262 263 263 264 266 268 270 271
240 242 248 252 253 251 247 240 230 226 228 231 231 231 234 236 236 238 239 238 239 241 242 242 242 244 246 248 250 252 254 255 258 260 262 263 264 264 265 267 268 269
237 240 246 252 249 242 236 230 224 225 228 229 230 231 232 233 234 236 239 241 242 244 245 245 245 246 248 251 253 254 254 254 255 256 259 261 262 262 263 264 265 267
237 238 240 242 242 240 237 231 223 224 227 226 227 229 229 229 232 236 239 242 243 245 247 247 248 250 251 253 254 254 254 254 254 255 257 259 260 260 260 261 262 262
241 241 238 236 238 242 246 245 237 232 229 226 226 226 225 226 230 234 237 240 243 246 249 251 252 253 255 255 255 255 255 255 255 256 257 258 259 260 261 261 261 260
244 243 237 233 235 239 242 243 241 237 233 231 232 231 229 230 236 241 241 241 243 246 249 252 253 253 255 256 256 256 256 256 257 256 256 256 258 260 262 262 261 261